SCP
0 0 0 0 0 0 0 0 0 0 0 0 0 0 0 0 0 0 0 0 0 0 0 0 0 0 0 0 0 0 0 0 0 0 0 0 0 0 0 0 0 0 0
0 0 0 0 0 0 0 0 0 0 0 0 0 0 0 0 0 0 0 0 0 0 0 0 0 0 0 0 0 0 0 0 0 0 0 0 0 0 0 0 0 0 0
0 0 0 0 0 0 0 0 0 0 0 0 0 0 0 0 0 0 0 0 0 0 0 0 0 0 0 0 0 0 0 0 0 0 0 0 0 0 0 0 0 0 0
0 0 0 0 0 0 0 0 0 0 0 0 0 0 0 0 0 0 0 0 0 0 0 0 0 0 0 0 0 0 0 0 0 0 0 0 0 0 0 0 0 0 0
0 0 0 0 0 0 0 0 0 0 0 0 0 0 0 0 0 0 0 0 0 0 0 0 0 0 0 0 0 0 0 0 0 0 0 0 0 0 0 0 0 0 0
0 0 0 0 0 0 0 0 0 0 0 0 0 0 0 0 0 0 0 0 0 0 0 0 0 0 0 0 0 0 0 0 0 0 0 0 0 0 0 0 0 0 0
0 0 0 0 0 0 0 0 0 0 0 0 0 0 0 0 0 0 0 0 0 0 0 0 0 0 0 0 0 0 0 0 0 0 0 0 0 0 0 0 0 0 0
0 0 0 0 0 0 0 0 0 0 0 0 0 0 0 0 0 0 0 0 0 0 0 0 0 0 0 0 0 0 0 0 0 0 0 0 0 0 0 0 0 0 0
0 0 0 0 0 0 0 0 0 0 0 0 0 0 0 0 0 0 0 0 0 0 0 0 0 0 0 0 0 0 0 0 0 0 0 0 0 0 0 0 0 0 0
0 0 0 0 0 0 0 0 0 0 0 0 0 0 0 0 0 0 0 0 0 0 0 0 0 0 0 0 0 0 0 0 0 0 0 0 0 0 0 0 0 0 0
0 0 0 0 0 0 0 0 0 0 0 0 0 0 0 0 0 0 0 0 0 0 0 0 0 0 0 0 0 0 0 0 0 0 0 0 0 0 0 0 0 0 0
0 0 0 0 0 0 0 0 0 0 0 0 0 0 0 0 0 0 0 0 0 0 0 0 0 0 0 0 0 0 0 0 0 0 0 0 0 0 0 0 0 0 0
0 0 0 0 0 0 0 0 0 0 0 0 0 0 0 0 0 0 0 0 0 0 0 0 0 0 0 0 0 0 0 0 0 0 0 0 0 0 0 0 0 0 0
0 0 0 0 0 0 0 0 0 0 0 0 0 0 0 0 0 0 0 0 0 0 0 0 0 0 0 0 0 0 0 0 0 0 0 0 0 0 0 0 0 0 0
0 0 0 0 0 0 0 0 0 0 0 0 0 0 0 0 0 0 0 0 0 0 0 0 0 0 0 0 0 0 0 0 0 0 0 0 0 0 0 0 0 0 0
0 0 0 0 0 0 0 0 0 0 0 0 0 0 0 0 0 0 0 0 0 0 0 0 0 0 0 0 0 0 0 0 0 -0 -0 -0 0 0 0 0 0 0 0
0 0 0 0 0 0 0 0 0 0 0 0 0 0 0 0 0 0 0 0 0 0 0 0 0 0 0 0 0 0 -0 -0 -0 -0 -0 -0 -0 -0 -0 -0 0 0 0
0 0 0 0 0 0 0 0 0 0 0 0 0 0 0 0 0 0 0 0 0 0 0 0 0 0 0 0 0 0 0 0 -0 -0 -0 -0 0 0 0 -0 0 0 0
0 0 0 0 0 0 0 0 0 0 0 0 0 0 0 0 0 0 0 0 0 0 0 0 0 0 0 0 0 0 0 0 0 0 0 0 0 0 0 0 0 0 0
0 0 0 0 0 0 0 0 0 0 0 0 0 0 0 0 0 0 0 0 0 0 0 0 0 0 0 0 0 0 0 0 0 0 -0 -0 -0 0 0 0 0 0 0
0 0 0 0 0 0 0 0 0 0 0 0 0 0 0 0 0 0 0 0 0 0 0 0 0 0 0 0 0 0 0 0 0 -0 -0 0 0 0 0 0 -0 0 0
0 0 0 0 0 0 0 0 0 0 0 0 0 0 0 0 0 0 0 0 0 0 0 0 0 0 0 0 0 0 0 0 -0 -0 0 0 0 0 -0 -0 -0 -0 -0
0 0 0 0 0 0 0 0 0 0 0 0 0 0 0 0 0 0 0 0 0 0 0 0 0 0 0 0 0 0 0 0 0 0 0 -0 -0 -0 0 0 -0 -0 0
0 0 0 0 0 0 0 0 0 0 0 0 0 0 0 0 0 0 0 0 0 0 0 0 0 0 0 0 0 0 0 0 0 0 -0 0 -0 0 0 0 -0 -0 0
0 0 0 0 0 0 0 0 0 0 0 0 0 0 0 0 0 0 0 0 0 0 0 0 0 0 0 0 0 0 0 0 0 0 0 0 0 0 0 -0 -0 -0 0
0 0 0 0 0 0 0 0 0 0 0 0 0 0 0 0 0 0 0 0 0 0 0 0 0 0 0 0 0 0 0 0 0 0 -0 0 0 0 -0 -0 0 0 0
Wind_Speed_500mb
53 48 45 41 36 31 26 21 16 13 11 11 12 14 16 17 17 18 18 16 16 17 18 19 18 16 12 11 11 6 10 4 16 20 20 16 17 27 33 38 40 38 36
60 55 51 48 42 37 32 27 21 17 13 12 13 15 16 17 18 20 20 18 15 14 16 19 19 17 3 13 15 16 6 20 22 23 22 22 25 27 26 28 36 41 38
67 63 59 55 49 43 38 33 26 21 17 15 16 17 17 17 18 18 17 15 13 13 13 16 15 18 23 15 17 6 10 17 23 13 22 26 24 25 25 26 27 30 36
73 71 67 61 56 51 45 39 33 28 23 19 17 15 16 18 18 15 14 14 12 11 11 11 14 18 19 15 4 12 14 21 14 18 20 21 22 24 26 29 32 31 31
79 77 72 66 64 59 53 45 39 33 26 22 18 17 17 18 18 16 13 12 12 12 13 14 14 14 15 11 13 12 15 19 22 24 25 26 28 31 33 35 33 34 34
85 82 78 75 71 67 60 54 46 38 32 27 22 18 17 17 18 18 18 16 15 14 14 15 14 13 11 12 16 21 24 27 28 28 29 29 31 32 33 35 35 37 37
91 89 86 83 78 74 65 58 51 47 42 36 27 20 17 16 18 21 21 20 17 15 13 12 14 17 18 19 19 19 21 21 22 22 24 26 28 30 32 34 36 39 41
97 96 93 88 83 77 72 67 61 56 51 42 32 22 15 18 22 23 24 22 16 15 10 12 15 15 15 16 17 17 16 14 13 16 17 19 23 26 32 35 39 42 44
101 99 95 92 88 83 81 74 70 63 58 51 42 30 16 17 25 33 34 30 27 23 13 15 16 16 14 14 15 14 11 8 13 17 19 22 25 28 32 35 39 41 43
105 103 100 96 93 89 86 79 74 70 65 59 49 46 39 28 23 20 37 34 32 32 20 19 18 16 17 16 16 14 9 16 17 19 22 24 26 29 32 34 37 39 43
108 105 103 100 97 93 87 84 81 79 73 66 61 53 47 42 40 34 25 34 35 34 28 23 20 18 16 15 14 13 17 18 19 21 24 27 30 33 35 37 39 42 44
109 108 107 105 100 96 94 89 85 81 76 70 65 60 55 50 46 42 41 32 32 31 30 27 23 20 17 12 12 15 18 20 23 26 29 30 32 35 37 39 40 43 46
99 107 108 107 105 100 95 91 89 85 82 78 73 68 62 55 48 41 40 38 35 33 30 28 27 23 20 15 14 17 21 25 29 33 36 38 41 43 44 44 45 47 50
84 90 100 104 102 100 99 95 92 88 86 84 80 75 69 64 58 51 45 41 37 37 33 31 33 28 22 16 19 24 25 29 33 37 40 42 44 46 48 48 48 47 48
82 81 84 96 100 101 100 99 99 97 93 89 85 80 77 73 66 59 53 48 44 39 36 36 36 33 27 21 21 23 26 29 36 42 46 47 46 45 46 45 44 46 49
82 82 80 83 93 99 101 103 104 102 99 96 91 88 86 81 75 68 61 54 50 45 39 35 35 30 26 23 24 27 29 33 38 41 44 46 47 49 49 46 45 47 49
80 83 83 87 89 94 101 106 110 108 107 104 98 95 93 88 84 76 69 61 56 51 48 44 39 34 31 27 29 32 35 37 40 41 43 42 42 43 47 49 49 51 53
74 84 87 91 95 96 99 104 113 115 114 113 106 101 100 95 92 83 76 69 60 54 50 49 46 42 37 33 33 35 41 43 43 41 44 45 41 42 46 47 50 55 58
66 75 86 91 98 101 102 105 111 120 120 118 114 107 106 103 101 92 84 74 64 58 55 54 52 48 43 41 39 43 44 46 43 40 40 35 36 40 40 44 48 54 58
57 68 82 89 95 100 104 106 108 118 124 126 119 112 112 111 108 98 90 79 71 68 62 59 58 52 46 45 46 43 42 43 37 39 37 33 39 39 41 46 47 50 54
61 61 70 83 97 99 102 109 110 114 124 128 124 120 118 113 110 101 94 87 82 74 70 67 64 57 52 49 43 39 36 39 34 33 36 41 47 49 51 55 57 54 58
64 62 70 77 90 102 101 105 108 109 117 121 130 127 120 118 115 103 95 87 81 79 76 72 69 61 54 47 41 35 31 30 30 32 49 46 48 50 54 61 62 67 66
70 67 69 71 85 94 96 102 106 111 114 115 123 129 124 127 116 108 100 92 86 82 75 69 67 61 56 45 37 35 32 31 36 36 50 61 52 55 57 60 60 62 64
67 71 64 66 72 83 84 91 98 105 107 111 117 123 124 130 121 116 106 100 95 88 82 77 69 61 52 42 39 35 34 31 36 34 43 60 52 64 67 65 60 55 67
66 66 72 66 66 73 78 80 85 106 100 106 116 121 124 127 122 118 109 103 96 89 82 77 68 62 50 41 43 36 26 30 35 36 37 48 59 73 77 75 69 74 77
77 68 68 75 68 66 69 75 79 86 101 107 116 116 124 123 116 116 111 105 101 92 81 75 67 57 53 43 37 33 29 28 30 26 26 47 54 62 67 76 84 86 92
Wind_Direction_500mb
227 224 223 222 221 220 222 225 233 245 260 279 299 310 318 321 321 318 314 308 295 282 269 259 251 251 258 265 241 151 120 305 259 258 252 254 257 256 253 247 246 250 254
229 228 227 226 224 223 223 224 228 237 255 279 299 311 315 318 320 319 319 314 302 281 264 252 250 244 157 160 208 221 228 261 261 266 277 271 268 275 281 278 262 256 254
230 229 228 227 227 225 224 226 230 238 248 266 282 295 299 304 307 308 305 300 293 284 263 240 218 155 149 193 228 186 141 257 278 291 275 281 288 288 290 288 288 287 272
231 229 228 227 227 226 224 224 225 227 232 244 261 277 288 294 293 287 277 267 259 251 246 237 241 239 243 249 256 153 234 279 304 288 302 310 306 299 294 291 294 294 289
233 230 229 228 228 226 225 225 226 226 233 244 257 273 283 289 289 279 262 245 236 233 232 238 243 236 236 237 252 273 285 294 297 306 312 311 308 308 312 312 311 305 298
232 231 230 229 229 228 225 225 225 227 229 233 243 257 271 275 267 254 245 237 239 245 248 250 254 258 258 274 287 288 289 292 299 303 301 300 298 298 297 297 299 296 298
231 231 231 230 229 229 229 227 224 225 224 226 230 235 246 250 245 230 223 219 216 215 211 224 240 250 259 263 268 268 268 280 282 288 290 290 294 296 296 294 292 290 292
228 228 230 230 231 230 227 225 225 224 223 223 224 221 229 238 226 221 217 212 220 226 228 265 265 263 260 256 247 252 256 274 292 299 305 306 305 305 303 303 301 299 294
231 230 229 230 232 231 231 230 229 227 228 227 224 217 195 211 213 224 226 227 234 216 252 267 262 261 250 242 240 235 233 285 302 307 304 303 304 303 301 302 302 299 297
231 231 231 231 230 231 231 230 230 229 228 228 225 228 232 230 196 207 224 229 216 235 250 262 258 243 231 222 228 216 265 294 295 301 307 312 312 310 308 306 302 299 297
231 231 233 232 231 231 231 231 229 227 228 229 231 231 231 231 231 228 219 222 230 225 240 246 241 228 230 202 231 212 286 299 311 318 322 326 326 321 316 311 308 306 304
231 232 232 232 233 232 231 230 230 231 231 232 234 236 239 234 233 229 229 226 221 226 234 234 233 224 214 219 221 282 306 321 326 329 327 327 324 321 319 315 313 310 307
234 233 233 232 232 232 232 231 230 230 230 231 233 235 237 238 240 238 234 233 229 229 226 230 226 227 226 226 264 301 317 324 329 330 331 331 329 326 324 322 320 318 316
245 240 237 235 235 235 233 230 231 232 232 232 232 232 234 236 238 239 241 238 233 231 230 227 231 235 233 262 291 308 321 327 327 327 328 329 327 325 325 324 325 321 317
253 248 243 238 238 237 235 232 231 230 231 232 233 234 236 235 234 235 237 237 234 233 234 230 225 226 229 264 286 301 314 318 321 326 327 326 326 326 326 326 328 325 324
258 253 249 245 241 239 237 235 233 232 231 230 231 233 235 235 233 233 233 234 234 234 235 237 235 236 252 273 290 302 311 317 322 325 325 323 324 323 324 331 332 330 327
263 258 253 248 244 240 237 237 237 235 233 231 230 232 234 234 233 232 232 231 231 232 233 238 244 253 267 282 290 300 305 310 316 321 322 324 328 330 329 332 329 327 326
271 263 257 252 248 243 240 237 237 237 234 232 231 231 232 232 231 231 231 231 231 232 232 236 242 246 253 259 270 283 290 301 307 315 313 317 322 322 325 324 323 322 326
278 269 261 254 252 248 244 240 238 238 237 235 234 232 233 232 231 230 230 230 231 232 234 237 239 239 245 254 264 270 277 285 293 297 299 306 309 314 320 322 322 323 323
279 276 269 263 258 253 249 246 242 240 239 237 234 234 235 235 234 231 230 230 231 231 232 234 237 238 241 248 257 268 277 288 299 307 307 318 327 332 332 324 326 327 324
286 279 273 268 263 255 251 246 243 242 241 239 238 235 235 235 236 235 233 229 229 228 229 231 231 233 239 245 257 265 279 292 308 302 308 332 326 334 333 330 337 336 331
300 286 279 274 268 260 255 250 245 243 243 242 242 239 236 235 234 232 232 231 233 232 231 231 231 233 236 242 251 263 277 291 301 305 310 325 325 336 334 332 341 340 338
319 300 283 277 273 269 261 256 252 246 242 242 243 242 238 236 232 230 228 228 229 229 230 236 235 236 235 242 245 256 268 283 294 317 316 319 330 331 330 331 338 341 336
311 311 297 283 275 272 270 263 257 251 246 245 245 244 242 239 233 229 226 226 227 227 229 231 231 234 234 237 243 254 266 287 300 316 318 310 329 326 326 328 331 337 334
301 301 304 296 282 275 271 266 260 253 246 245 244 243 241 238 233 229 226 225 226 225 226 227 226 229 233 235 245 257 273 281 297 314 319 314 329 325 324 326 328 334 330
304 295 297 299 291 280 271 266 260 249 250 244 241 238 240 238 233 227 227 225 224 224 222 222 225 227 229 231 237 248 260 276 293 311 320 319 326 331 325 322 319 323 326
Wind_Speed_850mb
53 48 45 41 36 31 26 21 16 13 11 11 12 14 16 17 17 18 18 16 16 17 18 19 18 16 12 11 11 6 10 4 16 20 20 16 17 27 33 38 40 38 36
60 55 51 48 42 37 32 27 21 17 13 12 13 15 16 17 18 20 20 18 15 14 16 19 19 17 3 13 15 16 6 20 22 23 22 22 25 27 26 28 36 41 38
67 63 59 55 49 43 38 33 26 21 17 15 16 17 17 17 18 18 17 15 13 13 13 16 15 18 23 15 17 6 10 17 23 13 22 26 24 25 25 26 27 30 36
73 71 67 61 56 51 45 39 33 28 23 19 17 15 16 18 18 15 14 14 12 11 11 11 14 18 19 15 4 12 14 21 14 18 20 21 22 24 26 29 32 31 31
79 77 72 66 64 59 53 45 39 33 26 22 18 17 17 18 18 16 13 12 12 12 13 14 14 14 15 11 13 12 15 19 22 24 25 26 28 31 33 35 33 34 34
85 82 78 75 71 67 60 54 46 38 32 27 22 18 17 17 18 18 18 16 15 14 14 15 14 13 11 12 16 21 24 27 28 28 29 29 31 32 33 35 35 37 37
91 89 86 83 78 74 65 58 51 47 42 36 27 20 17 16 18 21 21 20 17 15 13 12 14 17 18 19 19 19 21 21 22 22 24 26 28 30 32 34 36 39 41
97 96 93 88 83 77 72 67 61 56 51 42 32 22 15 18 22 23 24 22 16 15 10 12 15 15 15 16 17 17 16 14 13 16 17 19 23 26 32 35 39 42 44
101 99 95 92 88 83 81 74 70 63 58 51 42 30 16 17 25 33 34 30 27 23 13 15 16 16 14 14 15 14 11 8 13 17 19 22 25 28 32 35 39 41 43
105 103 100 96 93 89 86 79 74 70 65 59 49 46 39 28 23 20 37 34 32 32 20 19 18 16 17 16 16 14 9 16 17 19 22 24 26 29 32 34 37 39 43
108 105 103 100 97 93 87 84 81 79 73 66 61 53 47 42 40 34 25 34 35 34 28 23 20 18 16 15 14 13 17 18 19 21 24 27 30 33 35 37 39 42 44
109 108 107 105 100 96 94 89 85 81 76 70 65 60 55 50 46 42 41 32 32 31 30 27 23 20 17 12 12 15 18 20 23 26 29 30 32 35 37 39 40 43 46
99 107 108 107 105 100 95 91 89 85 82 78 73 68 62 55 48 41 40 38 35 33 30 28 27 23 20 15 14 17 21 25 29 33 36 38 41 43 44 44 45 47 50
84 90 100 104 102 100 99 95 92 88 86 84 80 75 69 64 58 51 45 41 37 37 33 31 33 28 22 16 19 24 25 29 33 37 40 42 44 46 48 48 48 47 48
82 81 84 96 100 101 100 99 99 97 93 89 85 80 77 73 66 59 53 48 44 39 36 36 36 33 27 21 21 23 26 29 36 42 46 47 46 45 46 45 44 46 49
82 82 80 83 93 99 101 103 104 102 99 96 91 88 86 81 75 68 61 54 50 45 39 35 35 30 26 23 24 27 29 33 38 41 44 46 47 49 49 46 45 47 49
80 83 83 87 89 94 101 106 110 108 107 104 98 95 93 88 84 76 69 61 56 51 48 44 39 34 31 27 29 32 35 37 40 41 43 42 42 43 47 49 49 51 53
74 84 87 91 95 96 99 104 113 115 114 113 106 101 100 95 92 83 76 69 60 54 50 49 46 42 37 33 33 35 41 43 43 41 44 45 41 42 46 47 50 55 58
66 75 86 91 98 101 102 105 111 120 120 118 114 107 106 103 101 92 84 74 64 58 55 54 52 48 43 41 39 43 44 46 43 40 40 35 36 40 40 44 48 54 58
57 68 82 89 95 100 104 106 108 118 124 126 119 112 112 111 108 98 90 79 71 68 62 59 58 52 46 45 46 43 42 43 37 39 37 33 39 39 41 46 47 50 54
61 61 70 83 97 99 102 109 110 114 124 128 124 120 118 113 110 101 94 87 82 74 70 67 64 57 52 49 43 39 36 39 34 33 36 41 47 49 51 55 57 54 58
64 62 70 77 90 102 101 105 108 109 117 121 130 127 120 118 115 103 95 87 81 79 76 72 69 61 54 47 41 35 31 30 30 32 49 46 48 50 54 61 62 67 66
70 67 69 71 85 94 96 102 106 111 114 115 123 129 124 127 116 108 100 92 86 82 75 69 67 61 56 45 37 35 32 31 36 36 50 61 52 55 57 60 60 62 64
67 71 64 66 72 83 84 91 98 105 107 111 117 123 124 130 121 116 106 100 95 88 82 77 69 61 52 42 39 35 34 31 36 34 43 60 52 64 67 65 60 55 67
66 66 72 66 66 73 78 80 85 106 100 106 116 121 124 127 122 118 109 103 96 89 82 77 68 62 50 41 43 36 26 30 35 36 37 48 59 73 77 75 69 74 77
77 68 68 75 68 66 69 75 79 86 101 107 116 116 124 123 116 116 111 105 101 92 81 75 67 57 53 43 37 33 29 28 30 26 26 47 54 62 67 76 84 86 92
Wind_Direction_850mb
227 224 223 222 221 220 222 225 233 245 260 279 299 310 318 321 321 318 314 308 295 282 269 259 251 251 258 265 241 151 120 305 259 258 252 254 257 256 253 247 246 250 254
229 228 227 226 224 223 223 224 228 237 255 279 299 311 315 318 320 319 319 314 302 281 264 252 250 244 157 160 208 221 228 261 261 266 277 271 268 275 281 278 262 256 254
230 229 228 227 227 225 224 226 230 238 248 266 282 295 299 304 307 308 305 300 293 284 263 240 218 155 149 193 228 186 141 257 278 291 275 281 288 288 290 288 288 287 272
231 229 228 227 227 226 224 224 225 227 232 244 261 277 288 294 293 287 277 267 259 251 246 237 241 239 243 249 256 153 234 279 304 288 302 310 306 299 294 291 294 294 289
233 230 229 228 228 226 225 225 226 226 233 244 257 273 283 289 289 279 262 245 236 233 232 238 243 236 236 237 252 273 285 294 297 306 312 311 308 308 312 312 311 305 298
232 231 230 229 229 228 225 225 225 227 229 233 243 257 271 275 267 254 245 237 239 245 248 250 254 258 258 274 287 288 289 292 299 303 301 300 298 298 297 297 299 296 298
231 231 231 230 229 229 229 227 224 225 224 226 230 235 246 250 245 230 223 219 216 215 211 224 240 250 259 263 268 268 268 280 282 288 290 290 294 296 296 294 292 290 292
228 228 230 230 231 230 227 225 225 224 223 223 224 221 229 238 226 221 217 212 220 226 228 265 265 263 260 256 247 252 256 274 292 299 305 306 305 305 303 303 301 299 294
231 230 229 230 232 231 231 230 229 227 228 227 224 217 195 211 213 224 226 227 234 216 252 267 262 261 250 242 240 235 233 285 302 307 304 303 304 303 301 302 302 299 297
231 231 231 231 230 231 231 230 230 229 228 228 225 228 232 230 196 207 224 229 216 235 250 262 258 243 231 222 228 216 265 294 295 301 307 312 312 310 308 306 302 299 297
231 231 233 232 231 231 231 231 229 227 228 229 231 231 231 231 231 228 219 222 230 225 240 246 241 228 230 202 231 212 286 299 311 318 322 326 326 321 316 311 308 306 304
231 232 232 232 233 232 231 230 230 231 231 232 234 236 239 234 233 229 229 226 221 226 234 234 233 224 214 219 221 282 306 321 326 329 327 327 324 321 319 315 313 310 307
234 233 233 232 232 232 232 231 230 230 230 231 233 235 237 238 240 238 234 233 229 229 226 230 226 227 226 226 264 301 317 324 329 330 331 331 329 326 324 322 320 318 316
245 240 237 235 235 235 233 230 231 232 232 232 232 232 234 236 238 239 241 238 233 231 230 227 231 235 233 262 291 308 321 327 327 327 328 329 327 325 325 324 325 321 317
253 248 243 238 238 237 235 232 231 230 231 232 233 234 236 235 234 235 237 237 234 233 234 230 225 226 229 264 286 301 314 318 321 326 327 326 326 326 326 326 328 325 324
258 253 249 245 241 239 237 235 233 232 231 230 231 233 235 235 233 233 233 234 234 234 235 237 235 236 252 273 290 302 311 317 322 325 325 323 324 323 324 331 332 330 327
263 258 253 248 244 240 237 237 237 235 233 231 230 232 234 234 233 232 232 231 231 232 233 238 244 253 267 282 290 300 305 310 316 321 322 324 328 330 329 332 329 327 326
271 263 257 252 248 243 240 237 237 237 234 232 231 231 232 232 231 231 231 231 231 232 232 236 242 246 253 259 270 283 290 301 307 315 313 317 322 322 325 324 323 322 326
278 269 261 254 252 248 244 240 238 238 237 235 234 232 233 232 231 230 230 230 231 232 234 237 239 239 245 254 264 270 277 285 293 297 299 306 309 314 320 322 322 323 323
279 276 269 263 258 253 249 246 242 240 239 237 234 234 235 235 234 231 230 230 231 231 232 234 237 238 241 248 257 268 277 288 299 307 307 318 327 332 332 324 326 327 324
286 279 273 268 263 255 251 246 243 242 241 239 238 235 235 235 236 235 233 229 229 228 229 231 231 233 239 245 257 265 279 292 308 302 308 332 326 334 333 330 337 336 331
300 286 279 274 268 260 255 250 245 243 243 242 242 239 236 235 234 232 232 231 233 232 231 231 231 233 236 242 251 263 277 291 301 305 310 325 325 336 334 332 341 340 338
319 300 283 277 273 269 261 256 252 246 242 242 243 242 238 236 232 230 228 228 229 229 230 236 235 236 235 242 245 256 268 283 294 317 316 319 330 331 330 331 338 341 336
311 311 297 283 275 272 270 263 257 251 246 245 245 244 242 239 233 229 226 226 227 227 229 231 231 234 234 237 243 254 266 287 300 316 318 310 329 326 326 328 331 337 334
301 301 304 296 282 275 271 266 260 253 246 245 244 243 241 238 233 229 226 225 226 225 226 227 226 229 233 235 245 257 273 281 297 314 319 314 329 325 324 326 328 334 330
304 295 297 299 291 280 271 266 260 249 250 244 241 238 240 238 233 227 227 225 224 224 222 222 225 227 229 231 237 248 260 276 293 311 320 319 326 331 325 322 319 323 326